QFA23R YSSY-YMML

Flight info

Callsign QFA23R
Flight time N/A
Altitude 34000
Route WOL H65 LEECE Q29 ML
Aircraft A320/M-SDE3FGHIRWY/LB1

Departure

Time 2026-05-04 10:08
Airport Sydney Kingsford Smith International Airport (YSSY)

Arrival

Time N/A
Airport Melbourne Airport (YMML)
Time Latitude Longitude Altitude Speed Heading
2026-05-04 09:12 -33.93129 151.17756 31 ft 0 kts 189°
2026-05-04 09:42 -33.93072 151.17770 29 ft 4 kts 208°
2026-05-04 09:43 -33.93059 151.17787 30 ft 3 kts 279°
2026-05-04 09:43 -33.93064 151.17818 30 ft 4 kts 280°
2026-05-04 09:43 -33.93066 151.17833 29 ft 3 kts 281°
2026-05-04 09:43 -33.93066 151.17834 29 ft 0 kts 281°
2026-05-04 09:46 -33.93066 151.17833 29 ft 0 kts 281°
2026-05-04 09:49 -33.93010 151.17559 30 ft 14 kts 239°
2026-05-04 09:49 -33.93103 151.17520 30 ft 15 kts 172°
2026-05-04 09:49 -33.93209 151.17549 30 ft 16 kts 169°
2026-05-04 09:51 -33.93576 151.17608 28 ft 0 kts 168°
2026-05-04 09:51 -33.93586 151.17610 28 ft 3 kts 168°
2026-05-04 09:51 -33.93627 151.17622 28 ft 10 kts 162°
2026-05-04 09:51 -33.93695 151.17668 30 ft 14 kts 155°
2026-05-04 09:52 -33.93815 151.17705 19 ft 20 kts 162°
2026-05-04 09:52 -33.93940 151.17788 22 ft 21 kts 164°
2026-05-04 09:52 -33.94083 151.17828 24 ft 22 kts 168°
2026-05-04 09:52 -33.94232 151.17866 24 ft 22 kts 167°
2026-05-04 09:53 -33.94389 151.17906 24 ft 24 kts 167°
2026-05-04 09:53 -33.94523 151.17883 25 ft 18 kts 177°
2026-05-04 09:53 -33.94655 151.17920 23 ft 22 kts 166°
2026-05-04 09:53 -33.94823 151.17962 20 ft 27 kts 169°
2026-05-04 09:54 -33.95008 151.18009 25 ft 26 kts 167°
2026-05-04 09:54 -33.95104 151.18094 28 ft 17 kts 90°
2026-05-04 09:54 -33.95076 151.18245 24 ft 20 kts 77°
2026-05-04 09:54 -33.95052 151.18390 26 ft 10 kts 78°
2026-05-04 09:55 -33.95049 151.18405 27 ft 1 kts 78°
2026-05-04 09:55 -33.95045 151.18427 28 ft 6 kts 78°
2026-05-04 09:55 -33.95059 151.18496 27 ft 12 kts 133°
2026-05-04 09:55 -33.95146 151.18576 28 ft 20 kts 136°
2026-05-04 09:56 -33.95272 151.18698 28 ft 26 kts 152°
2026-05-04 09:56 -33.95470 151.18763 22 ft 32 kts 167°
2026-05-04 09:56 -33.95690 151.18821 27 ft 32 kts 168°
2026-05-04 09:56 -33.95915 151.18877 27 ft 33 kts 168°
2026-05-04 09:57 -33.96149 151.18938 28 ft 35 kts 168°
2026-05-04 09:57 -33.96399 151.19003 23 ft 40 kts 168°
2026-05-04 09:57 -33.96671 151.19074 19 ft 33 kts 167°
2026-05-04 09:57 -33.96864 151.19080 19 ft 28 kts 167°
2026-05-04 09:58 -33.97051 151.19128 21 ft 23 kts 168°
2026-05-04 09:58 -33.97129 151.19174 21 ft 6 kts 118°
2026-05-04 09:58 -33.97132 151.19188 21 ft 0 kts 95°
2026-05-04 10:00 -33.97122 151.19263 21 ft 0 kts 77°
2026-05-04 10:06 -33.97121 151.19270 23 ft 2 kts 77°
2026-05-04 10:06 -33.97116 151.19300 21 ft 5 kts 77°
2026-05-04 10:08 -33.95113 151.18872 307 ft 138 kts 351°
2026-05-04 10:08 -33.94158 151.18710 772 ft 140 kts
2026-05-04 10:08 -33.93254 151.19126 1257 ft 144 kts 36°
2026-05-04 10:08 -33.92671 151.20123 1741 ft 155 kts 64°
2026-05-04 10:09 -33.92695 151.21543 1914 ft 192 kts 105°
2026-05-04 10:09 -33.93337 151.23070 2233 ft 208 kts 113°
2026-05-04 10:09 -33.93799 151.24680 2804 ft 201 kts 87°
2026-05-04 10:09 -33.93797 151.26342 3432 ft 197 kts 81°
2026-05-04 10:10 -33.93754 151.28005 3985 ft 201 kts 81°
2026-05-04 10:10 -33.93700 151.29740 4252 ft 221 kts 81°
2026-05-04 10:10 -33.93632 151.31688 4524 ft 245 kts 82°
2026-05-04 10:10 -33.93555 151.33838 4841 ft 269 kts 81°
2026-05-04 10:11 -33.93477 151.36151 5410 ft 282 kts 83°
2026-05-04 10:11 -33.93376 151.38530 6162 ft 288 kts 82°
2026-05-04 10:11 -33.93261 151.40965 6875 ft 294 kts 82°
2026-05-04 10:11 -33.93141 151.43441 7623 ft 298 kts 82°
2026-05-04 10:12 -33.93019 151.45947 8413 ft 301 kts 82°
2026-05-04 10:12 -33.92892 151.48477 9201 ft 304 kts 82°
2026-05-04 10:12 -33.92764 151.51037 9971 ft 308 kts 82°
2026-05-04 10:12 -33.92655 151.53678 10300 ft 328 kts 86°
2026-05-04 10:13 -33.93127 151.56461 10586 ft 352 kts 111°
2026-05-04 10:13 -33.94488 151.58956 11137 ft 362 kts 130°
2026-05-04 10:13 -33.96212 151.61193 11773 ft 366 kts 133°
2026-05-04 10:13 -33.97984 151.63423 12422 ft 370 kts 133°
2026-05-04 10:14 -33.99772 151.65670 13098 ft 373 kts 133°
2026-05-04 10:14 -34.01573 151.67935 13748 ft 377 kts 133°
2026-05-04 10:16 -34.15944 151.68328 14044 ft 342 kts 247°
2026-05-04 10:16 -34.17090 151.65793 14580 ft 345 kts 246°
2026-05-04 10:16 -34.18243 151.63243 15196 ft 347 kts 246°
2026-05-04 10:16 -34.19406 151.60674 15775 ft 350 kts 247°
2026-05-04 10:17 -34.20576 151.58081 16333 ft 353 kts 247°
2026-05-04 10:17 -34.21752 151.55465 16921 ft 356 kts 247°
2026-05-04 10:19 -34.30199 151.36670 20838 ft 370 kts 247°
2026-05-04 10:19 -34.31430 151.33926 21377 ft 372 kts 248°
2026-05-04 10:19 -34.32665 151.31169 21941 ft 373 kts 248°
2026-05-04 10:19 -34.33905 151.28402 22480 ft 375 kts 248°
2026-05-04 10:20 -34.35146 151.25626 23006 ft 376 kts 248°
2026-05-04 10:20 -34.36392 151.22833 23556 ft 378 kts 248°
2026-05-04 10:20 -34.37642 151.20026 23993 ft 380 kts 248°
2026-05-04 10:20 -34.38900 151.17201 24406 ft 382 kts 248°
2026-05-04 10:21 -34.40167 151.14359 24807 ft 384 kts 248°
2026-05-04 10:21 -34.41440 151.11502 25200 ft 387 kts 248°
2026-05-04 10:21 -34.42720 151.08627 25591 ft 389 kts 248°
2026-05-04 10:21 -34.44003 151.05736 25966 ft 391 kts 248°
2026-05-04 10:22 -34.46590 150.99901 26742 ft 395 kts 249°
2026-05-04 10:22 -34.47895 150.96964 27124 ft 397 kts 249°
2026-05-04 10:22 -34.49203 150.94015 27482 ft 399 kts 249°
2026-05-04 10:23 -34.50518 150.91043 27832 ft 401 kts 250°
2026-05-04 10:23 -34.51839 150.88061 28203 ft 403 kts 250°
2026-05-04 10:25 -34.62769 150.67538 30600 ft 424 kts 242°
2026-05-04 10:25 -34.64513 150.64653 30919 ft 425 kts 242°
2026-05-04 10:25 -34.66260 150.61753 31232 ft 425 kts 242°
2026-05-04 10:25 -34.68006 150.58848 31548 ft 426 kts 242°
2026-05-04 10:26 -34.69756 150.55934 31854 ft 427 kts 242°
2026-05-04 10:26 -34.71508 150.53022 32269 ft 425 kts 242°
2026-05-04 10:26 -34.73250 150.50126 32719 ft 422 kts 242°
2026-05-04 10:26 -34.74977 150.47253 33165 ft 420 kts 242°
2026-05-04 10:27 -34.76674 150.44426 33629 ft 417 kts 243°
2026-05-04 10:27 -34.78381 150.41578 33975 ft 416 kts 243°
2026-05-04 10:27 -34.80071 150.38749 34052 ft 408 kts 243°
2026-05-04 10:28 -34.83352 150.33259 34054 ft 398 kts 243°
2026-05-04 10:28 -34.86584 150.27811 34062 ft 396 kts 243°
2026-05-04 10:29 -34.89813 150.22368 34064 ft 397 kts 243°
2026-05-04 10:29 -34.93050 150.16923 34090 ft 396 kts 243°
2026-05-04 10:30 -34.96284 150.11494 34082 ft 396 kts 243°
2026-05-04 10:30 -34.99509 150.06057 34094 ft 396 kts 244°
2026-05-04 10:31 -35.02771 150.00520 34077 ft 410 kts 243°
2026-05-04 10:32 -35.14926 149.79914 34079 ft 432 kts 243°
2026-05-04 10:33 -35.18431 149.73946 34079 ft 432 kts 243°
2026-05-04 10:33 -35.21933 149.67968 34086 ft 432 kts 243°
2026-05-04 10:34 -35.25433 149.61983 34084 ft 432 kts 243°
2026-05-04 10:34 -35.28927 149.55992 34125 ft 433 kts 244°
2026-05-04 10:35 -35.32423 149.49996 34118 ft 433 kts 244°
2026-05-04 10:35 -35.35926 149.43988 34119 ft 433 kts 244°
2026-05-04 10:36 -35.39425 149.37975 34117 ft 433 kts 244°
2026-05-04 10:36 -35.42918 149.31952 34139 ft 434 kts 244°
2026-05-04 10:37 -35.46413 149.25914 34129 ft 434 kts 244°
2026-05-04 10:37 -35.49908 149.19873 34115 ft 434 kts 244°
2026-05-04 10:39 -35.62140 148.98641 34122 ft 435 kts 244°
2026-05-04 10:40 -35.65632 148.92553 34116 ft 435 kts 244°
2026-05-04 10:40 -35.68532 148.87487 34116 ft 436 kts 244°
2026-05-04 10:41 -35.71457 148.82381 34138 ft 435 kts 244°